Regional Weather Roundup
Issued by NWS

Home | Current Version | Previous Version | Text Only | Print | Product List | Glossary On
Versions: 1 2 3 4 5 6 7 8 9 10 11 12 13 14 15 16 17 18 19 20 21 22 23 24 25 26 27 28 29 30 31 32 33 34 35 36 37 38 39 40 41 42 43 44 45 46 47 48 49 50
000
ASUS43 KMKX 060621
RWRWI

WISCONSIN REGIONAL WEATHER ROUNDUP
NATIONAL WEATHER SERVICE MILWAUKEE/SULLIVAN WI
100 AM CDT FRI MAY 06 2016

NOTE: "FAIR" INDICATES FEW OR NO CLOUDS BELOW 12,000 FEET WITH NO
SIGNIFICANT WEATHER AND/OR OBSTRUCTIONS TO VISIBILITY.

WIZ001-002-006>008-014>016-023>028-060700-
NORTHWEST WISCONSIN

CITY           SKY/WX    TMP DP  RH WIND       PRES   REMARKS
SUPERIOR ARPT  CLEAR     63  42  46 SW7       29.77S
6HR MIN TEMP:  63; 6HR MAX TEMP:  79;

ASHLAND        PTCLDY    59  40  49 S7        29.79F
6HR MIN TEMP:  59; 6HR MAX TEMP:  73;

HAYWARD        PTCLDY    58  38  47 SW5       29.84F
6HR MIN TEMP:  55; 6HR MAX TEMP:  70;

SIREN          PTCLDY    67  39  35 SW12      29.83S
6HR MIN TEMP:  61; 6HR MAX TEMP:  74;

CUMBERLAND     CLEAR     52  37  58 SW3       29.85F
RICE LAKE      CLEAR     54  40  59 CALM      29.87F
6HR MIN TEMP:  53; 6HR MAX TEMP:  70;

CHETEK         CLEAR     50  46  84 CALM      29.86F
6HR MIN TEMP:  50; 6HR MAX TEMP:  68;

LADYSMITH      PTCLDY    55  39  56 SE3       29.88F
6HR MIN TEMP:  53; 6HR MAX TEMP:  66;

EAU CLAIRE     CLEAR     54  40  59 SW3       29.86F
6HR MIN TEMP:  53; 6HR MAX TEMP:  69;

MENOMONIE      CLEAR     55  40  58 CALM      29.86F
6HR MIN TEMP:  54; 6HR MAX TEMP:  71;

NEW RICHMOND   CLEAR     58  39  48 SW5       29.87S
6HR MIN TEMP:  57; 6HR MAX TEMP:  72;

OSCEOLA        CLEAR     56  43  61 CALM      29.88S
6HR MIN TEMP:  55; 6HR MAX TEMP:  74;

$$

WIZ003>005-009-010-017-018-060700-
NORTH CENTRAL WISCONSIN

CITY           SKY/WX    TMP DP  RH WIND       PRES   REMARKS
MANITOWISH WTR CLEAR     51  39  62 S6        29.88S
6HR MIN TEMP:  51; 6HR MAX TEMP:  66;

ARBOR VITAE    CLEAR     52  39  61 S3        29.89S
6HR MIN TEMP:  52; 6HR MAX TEMP:  64;

WOODRUFF       CLEAR     52  39  61 S3        29.89S
6HR MIN TEMP:  52; 6HR MAX TEMP:  64;

RHINELANDER    CLEAR     54  37  52 SW3       29.90F
6HR MIN TEMP:  52; 6HR MAX TEMP:  66; 6HR PCP: TRACE;

EAGLE RIVER    CLEAR     46  37  70 CALM      29.89S
LAND O LAKES   CLEAR     51  38  62 SW3       29.89F
6HR MIN TEMP:  51; 6HR MAX TEMP:  67;

PHILLIPS       CLEAR     53  38  56 S6        29.88F
6HR MIN TEMP:  53; 6HR MAX TEMP:  65;

TOMAHAWK       CLEAR     46  39  77 CALM      29.91S
6HR MIN TEMP:  43; 6HR MAX TEMP:  64;

MEDFORD        CLEAR     50  42  75 S6        29.90F
6HR MIN TEMP:  49; 6HR MAX TEMP:  62;

MERRILL        CLEAR     44  40  89 CALM      29.92F
$$

WIZ029-030-035-036-043>047-060700-
CENTRAL WISCONSIN

CITY           SKY/WX    TMP DP  RH WIND       PRES   REMARKS
WAUSAU         CLEAR     54  43  66 CALM      29.90F
6HR MIN TEMP:  53; 6HR MAX TEMP:  66; 6HR PCP: TRACE;

MOSINEE        CLEAR     50  39  66 S7        29.93S
MARSHFIELD     CLEAR     54  38  54 S5        29.91S
6HR MIN TEMP:  53; 6HR MAX TEMP:  65; 6HR PCP: TRACE;

STEVENS POINT  CLEAR     46  37  71 CALM      29.93S
6HR MIN TEMP:  44; 6HR MAX TEMP:  64;

WAUPACA        CLEAR     50  38  62 CALM      29.93S
6HR MIN TEMP:  50; 6HR MAX TEMP:  67;

WAUTOMA        CLOUDY    46  37  71 CALM      29.94F
6HR MIN TEMP:  46; 6HR MAX TEMP:  67;

WISC RAPIDS    CLEAR     49  39  68 SW3       29.93F
6HR MIN TEMP:  48; 6HR MAX TEMP:  67; 6HR PCP: TRACE;

CAMP DOUGLAS     N/A     47  47 100 SE5       29.93F
6HR MIN TEMP:  45; 6HR MAX TEMP:  65;

$$

WIZ011>013-019>022-031-037>040-048>050-060700-
NORTHEAST WISCONSIN

CITY           SKY/WX    TMP DP  RH WIND       PRES   REMARKS
ANTIGO         CLEAR     49  38  66 CALM      29.92F
6HR MIN TEMP:  46; 6HR MAX TEMP:  61;

SHAWANO        CLOUDY    55  36  48 CALM      29.91S
6HR MIN TEMP:  55; 6HR MAX TEMP:  69;

OCONTO         CLOUDY    50  45  81 CALM      29.90S
6HR MIN TEMP:  50; 6HR MAX TEMP:  60;

STURGEON BAY   CLOUDY    48  37  66 S7        29.93S
6HR MIN TEMP:  45; 6HR MAX TEMP:  54;

GREEN BAY      PTCLDY    50  42  74 CALM      29.92S
6HR MIN TEMP:  49; 6HR MAX TEMP:  64;

MANITOWOC      CLOUDY    47  39  74 CALM      29.93F
6HR MIN TEMP:  45; 6HR MAX TEMP:  51;

APPLETON       CLOUDY    50  36  57 SW3       29.90F
CLINTONVILLE   CLEAR     55  32  41 SW3       29.91F
OSHKOSH        MOCLDY    52  36  54 SW7       29.93S
6HR MIN TEMP:  45; 6HR MAX TEMP:  61;

$$

WIZ032>034-041-042-053>061-060700-
SOUTHWEST WISCONSIN

CITY           SKY/WX    TMP DP  RH WIND       PRES   REMARKS
LA CROSSE      PTCLDY    57  45  64 SE9       29.92S
6HR MIN TEMP:  56; 6HR MAX TEMP:  70;

SPARTA         PTCLDY    46  40  81 CALM      29.93F HAZE
6HR MIN TEMP:  46; 6HR MAX TEMP:  66;

VIROQUA        PTCLDY    55  37  51 SW6       29.95S
6HR MIN TEMP:  54; 6HR MAX TEMP:  65;

BOSCOBEL       PTCLDY    49  42  77 CALM      29.96S
6HR MIN TEMP:  48; 6HR MAX TEMP:  69;

PRAIRIE DU CHI CLEAR     50  42  73 CALM      29.96S
6HR MIN TEMP:  50; 6HR MAX TEMP:  68;

PLATTEVILLE    CLOUDY    54  40  60 S6        29.98R
6HR MIN TEMP:  53; 6HR MAX TEMP:  65;

$$

WIZ056-057-062-063-064-067-068-060700-
SOUTH CENTRAL WISCONSIN

CITY           SKY/WX    TMP DP  RH WIND       PRES   REMARKS
REEDSBURG      CLOUDY    51  41  68 CALM      29.94F
6HR MIN TEMP:  49; 6HR MAX TEMP:  64;

BARABOO/DELLS  CLOUDY    49  36  60 S3        29.95S
6HR MIN TEMP:  49; 6HR MAX TEMP:  65;

LONE ROCK      CLOUDY    50  42  74 E6        29.97S
6HR MIN TEMP:  48; 6HR MAX TEMP:  66;

MINERAL POINT  CLOUDY    54  36  50 SW7       29.97S
MADISON        CLEAR     46  38  73 CALM      29.96S
6HR MIN TEMP:  44; 6HR MAX TEMP:  65;

MIDDLETON      CLEAR     46  42  85 CALM      29.97S
6HR MIN TEMP:  43; 6HR MAX TEMP:  64;

WATERTOWN      CLEAR     43  40  88 CALM      29.96S
6HR MIN TEMP:  43; 6HR MAX TEMP:  63;

MONROE         CLEAR     54  34  47 SW9       29.97S
JANESVILLE     CLEAR     46  39  76 S3        29.97S
$$

WIZ051-052-058>065-066-070>072-060700-
SOUTHEAST WISCONSIN

CITY           SKY/WX    TMP DP  RH WIND       PRES   REMARKS
MILWAUKEE      CLEAR     46  37  71 SW6       29.97F
6HR MIN TEMP:  46; 6HR MAX TEMP:  51;

WAUKESHA       CLEAR     45  36  70 S5        29.98S
MILWAUKEE/TIMM CLEAR     45  36  70 CALM      29.98S
RACINE         CLEAR     44  37  76 SW5       29.99S
6HR MIN TEMP:  40; 6HR MAX TEMP:  51;

BURLINGTON     CLEAR     39  39  99 CALM      29.97F
6HR MIN TEMP:  39; 6HR MAX TEMP:  63;

KENOSHA        CLEAR     42  35  76 SW5       29.98S
6HR MIN TEMP:  40; 6HR MAX TEMP:  52;

FOND DU LAC    CLOUDY    48  40  73 S6        29.94F
6HR MIN TEMP:  45; 6HR MAX TEMP:  63;

SHEBOYGAN      PTCLDY    44  38  79 SW6       29.94F
6HR MIN TEMP:  42; 6HR MAX TEMP:  54;

WEST BEND      PTCLDY    43  39  87 CALM      29.95F
JUNEAU         MOCLDY    47  40  76 SE5       29.96F
6HR MIN TEMP:  46; 6HR MAX TEMP:  63;

$$

LSZ147-162-060700-
LAKE SUPERIOR

STATION/POSITION TIME  TEMP    WIND        PRES    WAVE
                       AIR SEA DIR/SP/G            HT/PER
                 (UTC) (F)     (DEG/KT/KT) (MB)    (FT/S)
W MID LAKE BUOY  0550   45 37  180/ 12/ 12 1008.6F
DEVILS ISLAND    0600   52     240/  2/  3 1008.3F
PORT WING        0500   44      50/  6/ 21 1008.8
SAXON HARBOR     0540   64     180/  9/ 20 1008.5F
$$

LMZ867-665-643>646-060700-
LAKE MICHIGAN

STATION/POSITION TIME  TEMP    WIND        PRES    WAVE
                       AIR SEA DIR/SP/G            HT/PER
                 (UTC) (F)     (DEG/KT/KT) (MB)   C1F1C2F2C3F3C4F4C5F5C6F6C7F7C8M1C9M2Ca!



USA.gov is the U.S. government's official web portal to all federal, state and local government web resources and services.